sat.trackr.live / text

‹ back to catalog

ONEWEB-0120

NORAD 47266 · 2020-100J

PAYLOAD ACTIVE UNKNOWN

§ Identity

Operator
Country
UK
Launch date
2020-12-18
Launch site
VOSTO
Launch vehicle
Mass (kg)
RCS (m²)

Purposes: comms

External: N2YO · Heavens-Above · Gunter

§ Orbital elements

Epoch: 2026-09-20T03:27:42.714432Z

Period
109.72 min
Inclination
87.8978°
Eccentricity
0.0001640
Mean motion
13.12443329 rev/d
Perigee alt
1,212.5 km
Apogee alt
1,215.0 km
Semi-major
7,591.9 km
B*
-8.6073e-4
RAAN
331.8142°
Arg perigee
99.0936°
Mean anomaly
261.0378°
Rev number
27,718

§ Raw data

ONEWEB-01201 47266U 20100J   26263.14424438 -.00000297  00000+0 -86073-3 0  99932 47266  87.8978 331.8142 0001640  99.0936 261.0378 13.12443329277187

JSON: /api/v1/satellites/47266 · /tle

For live sub-satellite position, see the globe view (requires WebGL).

§ Visibility from observer

Set your observer location to see the next 7 days of passes ≥ 10°. The values pass through the URL so the page stays shareable.

No JS? Fill the form by hand. The geolocation button needs JavaScript.